DW5759 Weather Reports


Display with metric or nautical units.
time (UTC)temp
F
wind
direction
speed
MPH
gust
MPH
rain 1hr
in
rain 24hr
in
rain mn
in
humidity
%
barometer
mb
20260509134508 47 348 0.0 0.0 0.01 0.19 0.19 93 1012.4
20260509133012 46 348 0.0 0.0 0.01 0.19 0.19 93 1012.2
20260509131518 46 359 0.0 0.0 0.00 0.18 0.18 93 1012.1
20260509130039 45 359 0.0 0.0 0.01 0.18 0.18 93 1012.1
20260509124504 45 359 0.0 0.0 0.01 0.18 0.18 93 1012.1
20260509123018 45 359 0.0 0.0 0.02 0.18 0.18 93 1012.2
20260509121520 45 349 0.0 0.0 0.03 0.18 0.18 93 1012.5
20260509120020 44 349 0.0 0.0 0.02 0.17 0.17 93 1012.7
20260509114503 44 349 0.0 0.0 0.02 0.17 0.17 93 1012.7
20260509113007 44 349 0.0 0.0 0.02 0.16 0.16 93 1012.5
20260509111513 44 349 0.0 0.0 0.01 0.15 0.15 93 1012.5
20260509110022 43 349 0.0 0.0 0.02 0.15 0.15 93 1012.5
20260509104520 43 349 0.0 0.0 0.02 0.15 0.15 92 1012.5
20260509103004 43 359 0.0 0.0 0.02 0.14 0.14 92 1012.3
20260509101515 43 359 0.0 0.0 0.03 0.14 0.14 92 1012.7
20260509100012 43 359 0.0 0.0 0.02 0.13 0.13 92 1012.9
20260509094518 43 359 0.0 0.0 0.04 0.13 0.13 92 1012.9
20260509093025 43 359 0.0 0.0 0.04 0.12 0.12 92 1012.6
20260509091508 43 359 0.0 0.0 0.03 0.11 0.11 91 1012.6
20260509090011 43 359 0.0 0.0 0.04 0.11 0.11 91 1012.7
20260509084515 43 359 0.0 0.0 0.04 0.09 0.09 91 1012.7
20260509083020 43 359 0.0 0.0 0.05 0.08 0.08 91 1012.7
20260509081537 42 354 0.0 0.0 0.08 0.08 0.08 90 1012.6
20260509080007 42 354 0.0 0.0 0.07 0.07 0.07 89 1012.6
20260509074508 42 293 0.0 0.0 0.05 0.05 0.05 88 1012.9
20260509073017 42 293 0.0 0.0 0.03 0.03 0.03 86 1013.0
20260509071522 42 293 0.0 0.0 0.00 0.00 0.00 86 1012.4
20260509070004 42 293 0.0 0.0 0.00 0.00 0.00 84 1012.1
20260509064508 42 293 0.0 0.0 0.00 0.00 0.00 84 1012.2
20260509063004 42 293 0.0 0.0 0.00 0.00 0.00 83 1012.3
20260509061504 42 293 0.0 0.0 0.00 0.00 0.00 83 1012.3
20260509060005 42 293 0.0 0.0 0.00 0.00 0.00 82 1012.5
20260509054511 43 293 0.0 0.0 0.00 0.00 0.00 82 1012.7
20260509053023 42 293 0.0 0.0 0.00 0.00 0.00 82 1012.9
20260509051502 42 293 0.0 0.0 0.00 0.00 0.00 81 1012.8
20260509050015 42 293 0.0 0.0 0.00 0.00 0.00 80 1012.8
20260509044509 42 293 0.0 0.0 0.00 0.00 0.00 78 1012.7
20260509043005 42 293 0.0 0.0 0.00 0.00 0.00 77 1013.0
20260509041510 42 293 0.0 0.0 0.00 0.00 0.00 76 1013.1
20260509040002 43 293 0.0 0.0 0.00 0.00 0.00 74 1012.9
20260509034503 43 293 0.0 0.0 0.00 0.00 0.00 74 1012.9
20260509033004 43 293 0.0 0.0 0.00 0.00 0.00 73 1012.8
20260509031508 43 293 0.0 0.0 0.00 0.00 0.00 73 1012.6
20260509030022 44 293 0.0 0.0 0.00 0.00 0.00 72 1012.7
20260509024503 44 293 0.0 0.0 0.00 0.00 0.00 71 1012.8
20260509023012 45 293 0.0 0.0 0.00 0.00 0.00 69 1012.7
20260509021524 45 293 0.0 0.0 0.00 0.00 0.00 67 1012.7
20260509020007 46 293 0.0 0.0 0.00 0.00 0.00 65 1012.5
20260509014513 46 293 0.0 0.0 0.00 0.00 0.00 65 1012.1
20260509013003 47 293 0.0 0.0 0.00 0.00 0.00 63 1012.1
20260509011505 48 293 0.0 0.0 0.00 0.00 0.00 61 1012.0
20260509010012 49 282 0.0 3.0 0.00 0.00 0.00 60 1011.5
20260509004512 50 284 0.0 0.0 0.00 0.00 0.00 59 1011.1
20260509003024 51 284 0.0 0.0 0.00 0.00 0.00 58 1011.1
20260509001503 52 285 0.0 0.0 0.00 0.00 0.00 55 1011.0
20260509000005 53 285 0.0 1.0 0.00 0.00 0.00 53 1011.0
20260508234528 55 285 0.0 4.0 0.00 0.00 0.00 52 1010.7
20260508233013 56 285 0.0 0.0 0.00 0.00 0.00 44 1010.6
20260508231517 56 285 0.0 2.0 0.00 0.00 0.00 43 1010.4
20260508230007 57 290 0.0 1.0 0.00 0.00 0.00 42 1010.4
20260508224503 58 285 0.0 4.0 0.00 0.00 0.00 39 1010.0
20260508223010 58 293 0.0 3.0 0.00 0.00 0.00 40 1010.0
20260508221520 58 359 0.0 7.0 0.00 0.00 0.00 40 1010.1
20260508220017 58 275 1.0 8.0 0.00 0.00 0.00 39 1010.1
20260508214504 58 248 1.0 6.0 0.00 0.00 0.00 39 1010.2
20260508213007 58 358 1.0 8.0 0.00 0.00 0.00 41 1010.2
20260508211509 57 332 1.0 10.0 0.00 0.00 0.00 43 1010.4
20260508210017 57 302 2.0 7.0 0.00 0.00 0.00 45 1010.3
20260508204518 57 276 2.0 12.0 0.00 0.00 0.00 45 1010.3
20260508203025 57 338 2.0 10.0 0.00 0.00 0.00 45 1010.3
20260508201527 57 318 2.0 11.0 0.00 0.00 0.00 47 1010.2
20260508200005 57 314 3.0 11.0 0.00 0.00 0.00 47 1010.3
20260508194503 56 243 4.0 8.0 0.00 0.00 0.00 51 1010.4
20260508193006 55 312 5.0 13.0 0.00 0.00 0.00 52 1010.7
20260508191504 55 324 6.0 13.0 0.00 0.00 0.00 52 1010.7
20260508190004 55 7 3.0 10.0 0.00 0.00 0.00 55 1010.7
20260508184504 55 204 1.0 8.0 0.00 0.00 0.00 58 1010.9
20260508183005 53 338 1.0 6.0 0.00 0.00 0.00 59 1011.1
20260508181504 53 311 1.0 9.0 0.00 0.00 0.00 60 1011.2
20260508180004 53 360 4.0 10.0 0.00 0.00 0.00 58 1011.2
20260508174510 52 312 0.0 6.0 0.00 0.00 0.00 60 1011.2
20260508173010 53 314 0.0 4.0 0.00 0.00 0.00 59 1010.8
20260508171505 52 349 0.0 3.0 0.00 0.00 0.00 59 1010.9
20260508170003 52 13 0.0 2.0 0.00 0.00 0.00 60 1011.1
20260508164509 52 307 0.0 3.0 0.00 0.00 0.00 62 1011.1
20260508163024 51 286 0.0 0.0 0.00 0.00 0.00 63 1011.1
20260508161508 51 305 0.0 1.0 0.00 0.00 0.00 68 1011.4
20260508160006 51 290 0.0 3.0 0.00 0.00 0.00 64 1011.2
20260508154507 53 333 0.0 4.0 0.00 0.00 0.00 56 1011.1
20260508153016 53 289 0.0 4.0 0.00 0.00 0.00 55 1010.8
20260508151520 54 264 0.0 3.0 0.00 0.00 0.00 53 1010.6
20260508150007 55 283 0.0 6.0 0.00 0.00 0.00 51 1010.6
20260508144506 54 235 0.0 8.0 0.00 0.00 0.00 49 1010.5
20260508143006 54 302 0.0 5.0 0.00 0.00 0.00 47 1010.8
20260508141511 53 299 1.0 5.0 0.00 0.00 0.00 47 1010.8
20260508140013 53 295 1.0 8.0 0.00 0.00 0.00 50 1011.1